Centerville, IA

10:21 PM CDT on March 26, 2017 (GMT -0500)
Centerville Municipal

Weather History for KTVK - September, 2013

Change the Weather History Date:

Thursday, September 19, 2013

  Actual Average Record
Temperature  
Mean Temperature 78 °F -  
Max Temperature 91 °F 75 °F 95 °F (1948)
Min Temperature 64 °F 55 °F 32 °F (1991)
Cooling Degree Days 12    
Growing Degree Days 28 (Base 50)    
Moisture  
Dew Point 67 °F    
Average Humidity 76    
Maximum Humidity 100    
Minimum Humidity 43    
Precipitation  
Precipitation 0.00 in - - ()
Sea Level Pressure  
Sea Level Pressure 29.87 in    
Wind  
Wind Speed 10 mph (SSW)    
Max Wind Speed 29 mph    
Max Gust Speed 34 mph    
Visibility 9 miles    
Events Rain    
Averages and records for this station are not official NWS values.
T = Trace of Precipitation, MM = Missing Value Source: NWS Daily Summary

Daily Weather History Graph

Daily Weather History Graph

Search for Another Location

Airport or City:

Trip Planner

Search our weather history database for the weather conditions in past years. The results will help you decide how hot, cold, wet, or windy it might be!

Date:

Astronomy

Sep. 19, 2013 Rise Set
Actual Time 6:56 AM CDT 7:13 PM CDT
Civil Twilight 6:29 AM CDT 7:40 PM CDT
Nautical Twilight 5:56 AM CDT 8:12 PM CDT
Astronomical Twilight 5:24 AM CDT 8:45 PM CDT
Moon 7:11 PM CDT (9/19) 7:06 AM CDT (9/19)
Length of Visible Light 13h 11m
Length of Day
12h 16m
Full, 100% of the Moon is Illuminated
Sep 19
Full
Sep 26
Last Quarter
Oct 4
New
Oct 11
First Quarter
Oct 18
Full

Hourly Weather History & Observations

Time (CDT) Temp. Heat Index Dew Point Humidity Pressure Visibility Wind Dir Wind Speed Gust Speed Precip Events Conditions
12:15 AM 73.4 °F - 68.0 °F 83% 29.89 in 10.0 mi South 10.4 mph - N/A   Clear
12:35 AM 73.4 °F - 68.0 °F 83% 29.89 in 10.0 mi South 10.4 mph - N/A   Clear
12:55 AM 73.4 °F - 68.0 °F 83% 29.89 in 10.0 mi South 9.2 mph - N/A   Clear
1:15 AM 71.6 °F - 68.0 °F 88% 29.89 in 10.0 mi South 9.2 mph - N/A   Clear
1:35 AM 71.6 °F - 68.0 °F 88% 29.89 in 10.0 mi SSE 6.9 mph - N/A   Clear
1:55 AM 71.6 °F - 68.0 °F 88% 29.89 in 10.0 mi SSE 5.8 mph - N/A   Clear
2:15 AM 71.6 °F - 68.0 °F 88% 29.89 in 10.0 mi SSE 8.1 mph - N/A   Clear
2:35 AM 71.6 °F - 68.0 °F 88% 29.89 in 10.0 mi South 8.1 mph - N/A   Clear
2:55 AM 71.6 °F - 68.0 °F 88% 29.88 in 10.0 mi South 5.8 mph - N/A   Clear
3:15 AM 71.6 °F - 68.0 °F 88% 29.88 in 10.0 mi Calm Calm - N/A   Clear
3:35 AM 71.6 °F - 68.0 °F 88% 29.88 in 10.0 mi Calm Calm - N/A   Clear
3:55 AM 71.6 °F - 68.0 °F 88% 29.88 in 10.0 mi South 5.8 mph - N/A   Clear
4:15 AM 71.6 °F - 68.0 °F 88% 29.88 in 10.0 mi South 9.2 mph - N/A   Clear
4:35 AM 71.6 °F - 68.0 °F 88% 29.88 in 10.0 mi South 9.2 mph - N/A   Clear
4:55 AM 73.4 °F - 68.0 °F 83% 29.88 in 10.0 mi South 9.2 mph - N/A   Clear
5:15 AM 73.4 °F - 68.0 °F 83% 29.88 in 10.0 mi South 8.1 mph 16.1 mph N/A   Clear
5:35 AM 73.4 °F - 68.0 °F 83% 29.87 in 10.0 mi South 10.4 mph 16.1 mph N/A   Clear
5:55 AM 73.4 °F - 68.0 °F 83% 29.87 in 10.0 mi South 10.4 mph - N/A   Clear
6:15 AM 73.4 °F - 66.2 °F 78% 29.87 in 10.0 mi South 10.4 mph - N/A   Clear
6:35 AM 73.4 °F - 66.2 °F 78% 29.87 in 10.0 mi South 10.4 mph - N/A   Clear
6:55 AM 73.4 °F - 66.2 °F 78% 29.88 in 10.0 mi South 12.7 mph 16.1 mph N/A   Clear
7:15 AM 73.4 °F - 68.0 °F 83% 29.88 in 10.0 mi South 10.4 mph 16.1 mph N/A   Clear
7:35 AM 73.4 °F - 68.0 °F 83% 29.88 in 10.0 mi South 10.4 mph 17.3 mph N/A   Clear
7:55 AM 75.2 °F - 68.0 °F 78% 29.88 in 10.0 mi South 12.7 mph 21.9 mph N/A   Clear
8:15 AM 75.2 °F - 68.0 °F 78% 29.88 in 10.0 mi South 13.8 mph 20.7 mph N/A   Clear
8:35 AM 77.0 °F - 68.0 °F 74% 29.87 in 10.0 mi South 15.0 mph 19.6 mph N/A   Clear
8:55 AM 78.8 °F - 68.0 °F 69% 29.87 in 10.0 mi South 17.3 mph 26.5 mph N/A   Clear
9:15 AM 80.6 °F 82.7 °F 66.2 °F 61% 29.88 in 10.0 mi South 17.3 mph 24.2 mph N/A   Clear
9:35 AM 80.6 °F 83.2 °F 68.0 °F 65% 29.88 in 10.0 mi SSW 18.4 mph 26.5 mph N/A   Clear
9:55 AM 82.4 °F 85.4 °F 68.0 °F 62% 29.88 in 10.0 mi South 17.3 mph 24.2 mph N/A   Clear
10:15 AM 82.4 °F 85.4 °F 68.0 °F 62% 29.88 in 10.0 mi South 16.1 mph 26.5 mph N/A   Clear
10:35 AM 82.4 °F 85.4 °F 68.0 °F 62% 29.88 in 10.0 mi South 18.4 mph 24.2 mph N/A   Clear
10:55 AM 82.4 °F 85.4 °F 68.0 °F 62% 29.88 in 10.0 mi SSW 11.5 mph 21.9 mph N/A   Clear
11:15 AM 84.2 °F 87.3 °F 68.0 °F 58% 29.89 in 10.0 mi SSW 15.0 mph 25.3 mph N/A   Clear
11:35 AM 84.2 °F 87.3 °F 68.0 °F 58% 29.90 in 10.0 mi SW 13.8 mph - N/A   Clear
11:55 AM 82.4 °F 85.4 °F 68.0 °F 62% 29.90 in 10.0 mi SW 11.5 mph 17.3 mph N/A   Clear
12:15 PM 84.2 °F 87.3 °F 68.0 °F 58% 29.90 in 10.0 mi SSW 10.4 mph 17.3 mph N/A   Clear
12:35 PM 84.2 °F 87.3 °F 68.0 °F 58% 29.90 in 10.0 mi WSW 13.8 mph 18.4 mph N/A   Partly Cloudy
12:55 PM 82.4 °F 85.4 °F 68.0 °F 62% 29.89 in 10.0 mi SSW 11.5 mph 16.1 mph N/A   Clear
1:15 PM 86.0 °F 89.4 °F 68.0 °F 55% 29.88 in 10.0 mi SSW 13.8 mph 19.6 mph N/A   Clear
1:35 PM 87.8 °F 90.4 °F 66.2 °F 49% 29.87 in 10.0 mi SW 13.8 mph 20.7 mph N/A   Clear
1:55 PM 89.6 °F 92.2 °F 66.2 °F 46% 29.86 in 10.0 mi SSW 13.8 mph - N/A   Clear
2:15 PM 89.6 °F 93.4 °F 68.0 °F 49% 29.84 in 10.0 mi South 12.7 mph - N/A   Clear
2:35 PM 89.6 °F 93.4 °F 68.0 °F 49% 29.83 in 10.0 mi South 11.5 mph 21.9 mph N/A   Clear
2:55 PM 91.4 °F 94.0 °F 66.2 °F 43% 29.81 in 10.0 mi South 13.8 mph 25.3 mph N/A   Clear
3:15 PM 89.6 °F 92.2 °F 66.2 °F 46% 29.79 in 10.0 mi South 12.7 mph 20.7 mph N/A   Clear
3:35 PM 91.4 °F 94.0 °F 66.2 °F 43% 29.78 in 10.0 mi SSW 18.4 mph 24.2 mph N/A   Clear
3:55 PM 91.4 °F 94.0 °F 66.2 °F 43% 29.77 in 10.0 mi South 15.0 mph 21.9 mph N/A   Clear
4:15 PM 91.4 °F 94.0 °F 66.2 °F 43% 29.77 in 10.0 mi South 13.8 mph 20.7 mph N/A   Clear
4:35 PM 87.8 °F 89.4 °F 64.4 °F 46% 29.77 in 10.0 mi SSW 18.4 mph 23.0 mph N/A   Clear
4:55 PM 86.0 °F 88.2 °F 66.2 °F 51% 29.77 in 10.0 mi SSW 16.1 mph 20.7 mph N/A   Clear
5:15 PM 86.0 °F 87.3 °F 64.4 °F 48% 29.80 in 10.0 mi SSW 10.4 mph 19.6 mph N/A   Clear
5:35 PM 84.2 °F 85.6 °F 64.4 °F 51% 29.85 in 10.0 mi West 28.8 mph 34.5 mph N/A   Scattered Clouds
5:55 PM 71.6 °F - 62.6 °F 73% 29.86 in 10.0 mi NW 17.3 mph 27.6 mph N/A   Mostly Cloudy
6:15 PM 68.0 °F - 64.4 °F 88% 29.87 in 8.0 mi WNW 15.0 mph 23.0 mph N/A Rain Light Rain
6:35 PM 66.2 °F - 66.2 °F 100% 29.88 in 3.0 mi NW 9.2 mph 16.1 mph N/A Rain Light Rain
6:55 PM 64.4 °F - 64.4 °F 100% 29.87 in 9.0 mi WNW 3.5 mph - N/A Rain Light Rain
7:15 PM 64.4 °F - 64.4 °F 100% 29.86 in 5.0 mi Calm Calm - N/A Rain Rain
7:35 PM 64.4 °F - 64.4 °F 100% 29.85 in 2.5 mi Calm Calm - N/A Rain Rain
7:55 PM 64.4 °F - 64.4 °F 100% 29.84 in 7.0 mi Calm Calm - N/A Rain Light Rain
8:15 PM 64.4 °F - 64.4 °F 100% 29.85 in 9.0 mi Calm Calm - N/A Rain Light Rain
8:35 PM 64.4 °F - 64.4 °F 100% 29.87 in 5.0 mi Calm Calm - N/A Rain Light Rain
8:55 PM 64.4 °F - 64.4 °F 100% 29.88 in 3.0 mi Calm Calm - N/A Rain Rain
9:15 PM 64.4 °F - 64.4 °F 100% 29.88 in 5.0 mi Calm Calm - N/A Rain Light Rain
9:35 PM 66.2 °F - 66.2 °F 100% 29.88 in 5.0 mi Calm Calm - N/A Rain Rain
9:55 PM 64.4 °F - 64.4 °F 100% 29.88 in 10.0 mi Calm Calm - N/A Rain Light Rain
10:15 PM 66.2 °F - 66.2 °F 100% 29.88 in 10.0 mi Calm Calm - N/A Rain Light Rain
10:35 PM 66.2 °F - 66.2 °F 100% 29.90 in 10.0 mi Calm Calm - N/A Rain Light Rain
10:55 PM 66.2 °F - 66.2 °F 100% 29.91 in 10.0 mi SW 3.5 mph - N/A   Overcast
11:15 PM 66.2 °F - 66.2 °F 100% 29.92 in 10.0 mi Calm Calm - N/A   Overcast
11:35 PM 66.2 °F - 66.2 °F 100% 29.91 in 10.0 mi Calm Calm - N/A   Overcast
11:55 PM 66.2 °F - 66.2 °F 100% 29.91 in 10.0 mi West 3.5 mph - N/A   Overcast